This is the latest recevied weather packets stored in our database for station/object W4MSI. If no packets are shown the sender has not sent any weather packets the latest 10 day(s).
| Time | Temp. | Humidity | Pressure | Rain* | Wind** | Luminosity | Snow |
|---|---|---|---|---|---|---|---|
| 1777917191 | 25° C | 45% | 1010.8 hPa | 0 mm | - | 863 W/m² | - |
| 1777916889 | 24.44° C | 46% | 1010.8 hPa | 0 mm | - | 863 W/m² | - |
| 1777916586 | 24.44° C | 45% | 1011 hPa | 0 mm | - | 863 W/m² | - |
| 1777916283 | 24.44° C | 46% | 1011.1 hPa | 0 mm | - | 863 W/m² | - |
| 1777915979 | 24.44° C | 48% | 1011 hPa | 0 mm | - | 863 W/m² | - |
| 1777915676 | 24.44° C | 47% | 1011 hPa | 0 mm | - | 861 W/m² | - |
| 1777915373 | 24.44° C | 49% | 1011 hPa | 0 mm | - | 854 W/m² | - |
| 1777915069 | 23.89° C | 46% | 1011.3 hPa | 0 mm | - | 842 W/m² | - |
| 1777914766 | 24.44° C | 47% | 1011.1 hPa | 0 mm | - | 863 W/m² | - |
| 1777914463 | 24.44° C | 50% | 1011.1 hPa | 0 mm | - | 844 W/m² | - |
| 1777914161 | 24.44° C | 51% | 1011.3 hPa | 0 mm | - | 842 W/m² | - |
| 1777913856 | 23.89° C | 48% | 1011.2 hPa | 0 mm | - | 841 W/m² | - |
| 1777913553 | 23.89° C | 50% | 1011.2 hPa | 0 mm | - | 833 W/m² | - |
| 1777913249 | 23.89° C | 49% | 1011.4 hPa | 0 mm | - | 831 W/m² | - |
| 1777912947 | 23.33° C | 50% | 1011.3 hPa | 0 mm | - | 820 W/m² | - |
| 1777912642 | 23.33° C | 50% | 1011.4 hPa | 0 mm | - | 816 W/m² | - |
| 1777912338 | 22.78° C | 54% | 1011.6 hPa | 0 mm | - | 807 W/m² | - |
| 1777912034 | 22.78° C | 50% | 1011.5 hPa | 0 mm | - | 800 W/m² | - |
| 1777911731 | 22.78° C | 52% | 1011.8 hPa | 0 mm | - | 794 W/m² | - |
| 1777911428 | 22.78° C | 51% | 1012.1 hPa | 0 mm | - | 782 W/m² | - |
| 1777911125 | 22.78° C | 53% | 1012 hPa | 0 mm | - | 778 W/m² | - |
| 1777910822 | 22.78° C | 53% | 1012 hPa | 0 mm | - | 766 W/m² | - |
| 1777910519 | 22.22° C | 54% | 1012.1 hPa | 0 mm | - | 753 W/m² | - |
| 1777910215 | 22.22° C | 55% | 1012 hPa | 0 mm | - | 746 W/m² | - |
| 1777909913 | 21.67° C | 57% | 1011.9 hPa | 0 mm | - | 675 W/m² | - |
* Rain latest hour (hover to see other rain measurements)
** Current wind speed in m/s (hover to see current wind gust speed)